Time,TemperatureF,DewpointF,PressureIn,WindDirection,WindDirectionDegrees,WindSpeedMPH,WindSpeedGustMPH,Humidity,HourlyPrecipIn,Conditions,Clouds,dailyrainin,SoftwareType,DateUTC
2013-02-12 00:00:00,31.9,31.4,29.55,North,-999,0.0,0.0,98,0.00,,,-99.99,WeatherLink 5.7,2013-02-12 05:00:00,
2013-02-12 00:10:00,31.9,31.4,29.55,NW,315,0.0,2.0,98,0.00,,,-99.99,WeatherLink 5.7,2013-02-12 05:10:00,
2013-02-12 00:15:00,31.9,31.4,29.55,NW,315,0.0,2.0,98,0.00,,,-99.99,WeatherLink 5.7,2013-02-12 05:15:00,
2013-02-12 00:25:00,31.9,31.4,29.55,NW,315,1.0,3.0,98,0.00,,,-99.99,WeatherLink 5.7,2013-02-12 05:25:00,
2013-02-12 00:35:00,31.9,31.4,29.53,NW,315,0.0,1.0,98,0.00,,,-99.99,WeatherLink 5.7,2013-02-12 05:35:00,
2013-02-12 00:40:00,31.9,31.4,29.53,NW,315,1.0,3.0,98,0.00,,,-99.99,WeatherLink 5.7,2013-02-12 05:40:00,
2013-02-12 00:45:00,31.8,31.3,29.54,NW,315,0.0,2.0,98,0.00,,,-99.99,WeatherLink 5.7,2013-02-12 05:45:00,
2013-02-12 00:55:00,31.9,31.4,29.54,NW,315,0.0,2.0,98,0.00,,,-99.99,WeatherLink 5.7,2013-02-12 05:55:00,
2013-02-12 01:06:00,31.9,31.4,29.53,NW,315,0.0,1.0,98,0.00,,,-99.99,WeatherLink 5.7,2013-02-12 06:06:00,
2013-02-12 01:15:00,31.9,31.4,29.54,NW,315,1.0,2.0,98,0.00,,,-99.99,WeatherLink 5.7,2013-02-12 06:15:00,
2013-02-12 01:25:00,31.8,31.3,29.54,NW,315,0.0,2.0,98,0.00,,,-99.99,WeatherLink 5.7,2013-02-12 06:25:00,
2013-02-12 01:30:00,31.8,31.3,29.54,NW,315,1.0,2.0,98,0.00,,,-99.99,WeatherLink 5.7,2013-02-12 06:30:00,
2013-02-12 01:40:00,32.1,31.9,29.54,West,270,2.0,5.0,99,0.00,,,-99.99,WeatherLink 5.7,2013-02-12 06:40:00,
2013-02-12 01:45:00,32.2,32.0,29.54,WSW,247,2.0,6.0,99,0.00,,,-99.99,WeatherLink 5.7,2013-02-12 06:45:00,
2013-02-12 01:55:00,32.5,32.3,29.54,West,270,3.0,7.0,99,0.00,,,-99.99,WeatherLink 5.7,2013-02-12 06:55:00,
2013-02-12 02:00:00,32.5,32.3,29.55,West,270,5.0,10.0,99,0.00,,,-99.99,WeatherLink 5.7,2013-02-12 07:00:00,
2013-02-12 02:10:00,32.5,32.3,29.55,West,270,2.0,6.0,99,0.00,,,-99.99,WeatherLink 5.7,2013-02-12 07:10:00,
2013-02-12 02:20:00,32.4,32.2,29.55,West,270,3.0,8.0,99,0.00,,,-99.99,WeatherLink 5.7,2013-02-12 07:20:00,
2013-02-12 02:30:00,32.2,32.0,29.55,West,270,1.0,3.0,99,0.00,,,-99.99,WeatherLink 5.7,2013-02-12 07:30:00,
2013-02-12 02:40:00,32.2,32.0,29.55,West,270,2.0,8.0,99,0.00,,,-99.99,WeatherLink 5.7,2013-02-12 07:40:00,
2013-02-12 02:45:00,32.2,32.0,29.54,West,270,2.0,4.0,99,0.00,,,-99.99,WeatherLink 5.7,2013-02-12 07:45:00,
2013-02-12 02:55:00,32.2,31.7,29.54,West,270,3.0,6.0,98,0.00,,,-99.99,WeatherLink 5.7,2013-02-12 07:55:00,
2013-02-12 03:05:00,32.2,31.7,29.55,West,270,2.0,5.0,98,0.00,,,-99.99,WeatherLink 5.7,2013-02-12 08:05:00,
2013-02-12 03:15:00,32.2,31.7,29.55,WSW,247,1.0,5.0,98,0.00,,,-99.99,WeatherLink 5.7,2013-02-12 08:15:00,
2013-02-12 03:25:00,32.1,31.6,29.55,West,270,0.0,2.0,98,0.00,,,-99.99,WeatherLink 5.7,2013-02-12 08:25:00,
2013-02-12 03:30:00,31.9,31.4,29.56,West,270,0.0,2.0,98,0.00,,,-99.99,WeatherLink 5.7,2013-02-12 08:30:00,
2013-02-12 03:40:00,31.9,31.4,29.56,West,270,1.0,3.0,98,0.00,,,-99.99,WeatherLink 5.7,2013-02-12 08:40:00,
2013-02-12 03:50:00,31.8,31.3,29.55,West,270,1.0,2.0,98,0.00,,,-99.99,WeatherLink 5.7,2013-02-12 08:50:00,
2013-02-12 04:00:00,31.5,31.0,29.56,West,270,0.0,3.0,98,0.00,,,-99.99,WeatherLink 5.7,2013-02-12 09:00:00,
2013-02-12 04:10:00,31.5,31.0,29.56,North,-999,0.0,0.0,98,0.00,,,-99.99,WeatherLink 5.7,2013-02-12 09:10:00,
2013-02-12 04:20:00,31.3,30.5,29.56,West,270,0.0,2.0,97,0.00,,,-99.99,WeatherLink 5.7,2013-02-12 09:20:00,
2013-02-12 04:30:00,31.3,30.5,29.57,West,270,1.0,3.0,97,0.00,,,-99.99,WeatherLink 5.7,2013-02-12 09:30:00,
2013-02-12 04:40:00,31.5,30.7,29.57,WSW,247,1.0,3.0,97,0.00,,,-99.99,WeatherLink 5.7,2013-02-12 09:40:00,
2013-02-12 04:50:00,31.5,30.7,29.57,West,270,0.0,2.0,97,0.00,,,-99.99,WeatherLink 5.7,2013-02-12 09:50:00,
2013-02-12 04:55:00,31.5,30.7,29.57,West,270,0.0,1.0,97,0.00,,,-99.99,WeatherLink 5.7,2013-02-12 09:55:00,
2013-02-12 05:05:00,31.5,30.7,29.57,North,-999,0.0,0.0,97,0.00,,,-99.99,WeatherLink 5.7,2013-02-12 10:05:00,
2013-02-12 05:10:00,31.5,30.7,29.57,West,270,1.0,3.0,97,0.00,,,-99.99,WeatherLink 5.7,2013-02-12 10:10:00,
2013-02-12 05:15:00,31.5,30.7,29.57,WSW,247,0.0,3.0,97,0.00,,,-99.99,WeatherLink 5.7,2013-02-12 10:15:00,
2013-02-12 05:26:00,31.6,30.8,29.57,WSW,247,0.0,2.0,97,0.00,,,-99.99,WeatherLink 5.7,2013-02-12 10:26:00,
2013-02-12 05:35:00,31.6,31.1,29.57,WSW,247,0.0,3.0,98,0.00,,,-99.99,WeatherLink 5.7,2013-02-12 10:35:00,
2013-02-12 05:45:00,31.6,30.8,29.57,SSE,157,0.0,2.0,97,0.00,,,-99.99,WeatherLink 5.7,2013-02-12 10:45:00,
2013-02-12 05:50:00,31.6,30.8,29.57,North,0,0.0,2.0,97,0.00,,,-99.99,WeatherLink 5.7,2013-02-12 10:50:00,
2013-02-12 05:55:00,31.5,30.7,29.57,North,0,0.0,2.0,97,0.00,,,-99.99,WeatherLink 5.7,2013-02-12 10:55:00,
2013-02-12 06:05:00,31.5,30.7,29.57,North,-999,0.0,0.0,97,0.00,,,-99.99,WeatherLink 5.7,2013-02-12 11:05:00,
2013-02-12 06:10:00,31.5,30.7,29.57,NW,315,0.0,2.0,97,0.00,,,-99.99,WeatherLink 5.7,2013-02-12 11:10:00,
2013-02-12 06:15:00,31.5,30.7,29.59,North,-999,0.0,0.0,97,0.00,,,-99.99,WeatherLink 5.7,2013-02-12 11:15:00,
2013-02-12 06:25:00,31.5,30.7,29.59,SW,225,0.0,1.0,97,0.00,,,-99.99,WeatherLink 5.7,2013-02-12 11:25:00,
2013-02-12 06:30:00,31.5,30.7,29.59,West,270,0.0,2.0,97,0.00,,,-99.99,WeatherLink 5.7,2013-02-12 11:30:00,
2013-02-12 06:40:00,31.5,30.7,29.59,WSW,247,1.0,5.0,97,0.00,,,-99.99,WeatherLink 5.7,2013-02-12 11:40:00,
2013-02-12 06:50:00,31.6,31.1,29.59,WSW,247,2.0,7.0,98,0.00,,,-99.99,WeatherLink 5.7,2013-02-12 11:50:00,
2013-02-12 06:55:00,31.8,31.3,29.59,West,270,2.0,4.0,98,0.00,,,-99.99,WeatherLink 5.7,2013-02-12 11:55:00,
2013-02-12 07:05:00,31.9,31.4,29.59,West,270,1.0,3.0,98,0.00,,,-99.99,WeatherLink 5.7,2013-02-12 12:05:00,
2013-02-12 07:10:00,31.9,31.4,29.59,West,270,1.0,2.0,98,0.00,,,-99.99,WeatherLink 5.7,2013-02-12 12:10:00,
2013-02-12 07:20:00,32.1,31.6,29.59,West,270,1.0,3.0,98,0.00,,,-99.99,WeatherLink 5.7,2013-02-12 12:20:00,
2013-02-12 07:25:00,32.1,31.6,29.59,West,270,1.0,3.0,98,0.00,,,-99.99,WeatherLink 5.7,2013-02-12 12:25:00,
2013-02-12 07:35:00,32.2,31.7,29.60,West,270,0.0,5.0,98,0.00,,,-99.99,WeatherLink 5.7,2013-02-12 12:35:00,
2013-02-12 07:40:00,32.2,31.7,29.60,West,270,0.0,2.0,98,0.00,,,-99.99,WeatherLink 5.7,2013-02-12 12:40:00,
2013-02-12 07:45:00,32.4,31.9,29.60,North,-999,0.0,0.0,98,0.00,,,-99.99,WeatherLink 5.7,2013-02-12 12:45:00,
2013-02-12 07:55:00,32.5,32.0,29.60,West,270,1.0,3.0,98,0.00,,,-99.99,WeatherLink 5.7,2013-02-12 12:55:00,
2013-02-12 08:05:00,33.1,32.6,29.60,West,270,1.0,2.0,98,0.00,,,-99.99,WeatherLink 5.7,2013-02-12 13:05:00,
2013-02-12 08:15:00,34.1,33.6,29.61,West,270,3.0,8.0,98,0.00,,,-99.99,WeatherLink 5.7,2013-02-12 13:15:00,
2013-02-12 08:25:00,35.3,34.8,29.61,WSW,247,3.0,6.0,98,0.00,,,-99.99,WeatherLink 5.7,2013-02-12 13:25:00,
2013-02-12 08:30:00,35.8,35.3,29.60,West,270,3.0,6.0,98,0.00,,,-99.99,WeatherLink 5.7,2013-02-12 13:30:00,
2013-02-12 08:40:00,36.6,36.1,29.60,West,270,3.0,6.0,98,0.00,,,-99.99,WeatherLink 5.7,2013-02-12 13:40:00,
2013-02-12 08:45:00,37.2,36.7,29.60,West,270,3.0,6.0,98,0.00,,,-99.99,WeatherLink 5.7,2013-02-12 13:45:00,
2013-02-12 08:55:00,38.0,37.5,29.60,WSW,247,2.0,6.0,98,0.00,,,-99.99,WeatherLink 5.7,2013-02-12 13:55:00,
2013-02-12 09:05:00,37.8,37.3,29.61,WNW,292,4.0,11.0,98,0.00,,,-99.99,WeatherLink 5.7,2013-02-12 14:05:00,
2013-02-12 09:15:00,38.2,37.7,29.61,West,270,2.0,7.0,98,0.00,,,-99.99,WeatherLink 5.7,2013-02-12 14:15:00,
2013-02-12 09:25:00,38.8,38.0,29.61,West,270,2.0,5.0,97,0.00,,,-99.99,WeatherLink 5.7,2013-02-12 14:25:00,
2013-02-12 09:35:00,39.3,38.5,29.60,West,270,3.0,8.0,97,0.00,,,-99.99,WeatherLink 5.7,2013-02-12 14:35:00,
2013-02-12 09:45:00,39.2,38.2,29.61,WSW,247,3.0,8.0,96,0.00,,,-99.99,WeatherLink 5.7,2013-02-12 14:45:00,
2013-02-12 09:50:00,38.9,37.9,29.61,West,270,5.0,12.0,96,0.00,,,-99.99,WeatherLink 5.7,2013-02-12 14:50:00,
2013-02-12 10:00:00,38.9,37.9,29.61,West,270,5.0,11.0,96,0.00,,,-99.99,WeatherLink 5.7,2013-02-12 15:00:00,
2013-02-12 10:05:00,39.5,38.5,29.61,West,270,3.0,10.0,96,0.00,,,-99.99,WeatherLink 5.7,2013-02-12 15:05:00,
2013-02-12 10:10:00,39.3,38.0,29.61,West,270,5.0,12.0,95,0.00,,,-99.99,WeatherLink 5.7,2013-02-12 15:10:00,
2013-02-12 10:20:00,38.6,37.0,29.61,West,270,6.0,14.0,94,0.00,,,-99.99,WeatherLink 5.7,2013-02-12 15:20:00,
2013-02-12 10:30:00,38.8,37.5,29.61,WSW,247,2.0,6.0,95,0.00,,,-99.99,WeatherLink 5.7,2013-02-12 15:30:00,
2013-02-12 10:40:00,38.8,37.2,29.61,West,270,2.0,7.0,94,0.00,,,-99.99,WeatherLink 5.7,2013-02-12 15:40:00,
2013-02-12 10:50:00,38.9,35.9,29.61,West,270,5.0,12.0,89,0.00,,,-99.99,WeatherLink 5.7,2013-02-12 15:50:00,
2013-02-12 11:00:00,38.9,32.3,29.61,WSW,247,7.0,16.0,77,0.00,,,-99.99,WeatherLink 5.7,2013-02-12 16:00:00,
2013-02-12 11:05:00,39.2,32.3,29.61,WSW,247,5.0,12.0,76,0.00,,,-99.99,WeatherLink 5.7,2013-02-12 16:05:00,
2013-02-12 11:15:00,40.1,31.4,29.61,West,270,5.0,12.0,71,0.00,,,-99.99,WeatherLink 5.7,2013-02-12 16:15:00,
2013-02-12 11:20:00,41.2,31.8,29.61,West,270,6.0,11.0,69,0.00,,,-99.99,WeatherLink 5.7,2013-02-12 16:20:00,
2013-02-12 11:30:00,42.2,30.5,29.61,WSW,247,7.0,13.0,63,0.00,,,-99.99,WeatherLink 5.7,2013-02-12 16:30:00,
2013-02-12 11:35:00,42.8,30.3,29.61,WSW,247,5.0,10.0,61,0.00,,,-99.99,WeatherLink 5.7,2013-02-12 16:35:00,
2013-02-12 11:45:00,43.1,29.3,29.61,West,270,7.0,18.0,58,0.00,,,-99.99,WeatherLink 5.7,2013-02-12 16:45:00,
2013-02-12 11:55:00,43.8,29.5,29.61,West,270,7.0,14.0,57,0.00,,,-99.99,WeatherLink 5.7,2013-02-12 16:55:00,
2013-02-12 12:05:00,44.5,29.3,29.61,West,270,6.0,14.0,55,0.00,,,-99.99,WeatherLink 5.7,2013-02-12 17:05:00,
2013-02-12 12:10:00,45.2,30.0,29.61,WSW,247,5.0,13.0,55,0.00,,,-99.99,WeatherLink 5.7,2013-02-12 17:10:00,
2013-02-12 12:20:00,45.7,29.1,29.60,West,270,6.0,11.0,52,0.00,,,-99.99,WeatherLink 5.7,2013-02-12 17:20:00,
2013-02-12 12:30:00,46.1,29.4,29.61,West,270,7.0,13.0,52,0.00,,,-99.99,WeatherLink 5.7,2013-02-12 17:30:00,
2013-02-12 12:35:00,45.8,28.7,29.61,West,270,7.0,17.0,51,0.00,,,-99.99,WeatherLink 5.7,2013-02-12 17:35:00,
2013-02-12 12:45:00,45.2,29.1,29.61,WSW,247,5.0,14.0,53,0.00,,,-99.99,WeatherLink 5.7,2013-02-12 17:45:00,
2013-02-12 12:50:00,44.8,28.7,29.61,WSW,247,7.0,14.0,53,0.00,,,-99.99,WeatherLink 5.7,2013-02-12 17:50:00,
2013-02-12 13:05:00,44.8,29.6,29.61,WSW,247,7.0,16.0,55,0.00,,,-99.99,WeatherLink 5.7,2013-02-12 18:05:00,
2013-02-12 13:10:00,44.9,28.8,29.61,West,270,5.0,11.0,53,0.00,,,-99.99,WeatherLink 5.7,2013-02-12 18:10:00,
2013-02-12 13:20:00,44.6,28.5,29.61,West,270,5.0,12.0,53,0.00,,,-99.99,WeatherLink 5.7,2013-02-12 18:20:00,
2013-02-12 13:25:00,44.6,29.0,29.61,West,270,5.0,8.0,54,0.00,,,-99.99,WeatherLink 5.7,2013-02-12 18:25:00,
2013-02-12 13:35:00,44.5,28.9,29.61,West,270,4.0,10.0,54,0.00,,,-99.99,WeatherLink 5.7,2013-02-12 18:35:00,
2013-02-12 13:45:00,43.5,29.3,29.62,WSW,247,4.0,11.0,57,0.00,,,-99.99,WeatherLink 5.7,2013-02-12 18:45:00,
2013-02-12 13:55:00,42.9,29.1,29.62,West,270,4.0,8.0,58,0.00,,,-99.99,WeatherLink 5.7,2013-02-12 18:55:00,
2013-02-12 14:00:00,42.3,29.4,29.63,WSW,247,6.0,14.0,60,0.00,,,-99.99,WeatherLink 5.7,2013-02-12 19:00:00,
2013-02-12 14:10:00,41.1,29.1,29.63,WSW,247,4.0,10.0,62,0.00,,,-99.99,WeatherLink 5.7,2013-02-12 19:10:00,
2013-02-12 14:20:00,40.3,28.3,29.64,West,270,5.0,11.0,62,0.00,,,-99.99,WeatherLink 5.7,2013-02-12 19:20:00,
2013-02-12 14:25:00,40.2,28.6,29.64,West,270,2.0,5.0,63,0.00,,,-99.99,WeatherLink 5.7,2013-02-12 19:25:00,
2013-02-12 14:30:00,40.1,28.5,29.65,West,270,4.0,10.0,63,0.00,,,-99.99,WeatherLink 5.7,2013-02-12 19:30:00,
2013-02-12 14:35:00,39.9,28.3,29.65,WSW,247,6.0,22.0,63,0.00,,,-99.99,WeatherLink 5.7,2013-02-12 19:35:00,
2013-02-12 14:45:00,39.5,28.7,29.66,West,270,3.0,7.0,65,0.00,,,-99.99,WeatherLink 5.7,2013-02-12 19:45:00,
2013-02-12 14:50:00,39.3,28.5,29.66,West,270,4.0,10.0,65,0.00,,,-99.99,WeatherLink 5.7,2013-02-12 19:50:00,
2013-02-12 15:00:00,39.1,28.7,29.66,West,270,4.0,8.0,66,0.00,,,-99.99,WeatherLink 5.7,2013-02-12 20:00:00,
2013-02-12 15:05:00,38.9,28.5,29.66,WSW,247,3.0,8.0,66,0.00,,,-99.99,WeatherLink 5.7,2013-02-12 20:05:00,
2013-02-12 15:15:00,38.8,28.8,29.67,West,270,4.0,13.0,67,0.00,,,-99.99,WeatherLink 5.7,2013-02-12 20:15:00,
2013-02-12 15:25:00,38.6,28.6,29.67,West,270,3.0,5.0,67,0.00,,,-99.99,WeatherLink 5.7,2013-02-12 20:25:00,
2013-02-12 15:30:00,38.6,28.6,29.67,West,270,4.0,7.0,67,0.00,,,-99.99,WeatherLink 5.7,2013-02-12 20:30:00,
2013-02-12 15:40:00,38.5,28.9,29.67,West,270,3.0,8.0,68,0.00,,,-99.99,WeatherLink 5.7,2013-02-12 20:40:00,
2013-02-12 15:45:00,38.3,28.7,29.67,WSW,247,6.0,13.0,68,0.00,,,-99.99,WeatherLink 5.7,2013-02-12 20:45:00,
2013-02-12 15:55:00,38.5,29.2,29.67,WSW,247,5.0,8.0,69,0.00,,,-99.99,WeatherLink 5.7,2013-02-12 20:55:00,
2013-02-12 16:00:00,38.3,28.7,29.66,West,270,6.0,11.0,68,0.00,,,-99.99,WeatherLink 5.7,2013-02-12 21:00:00,
2013-02-12 16:05:00,38.3,29.0,29.66,WSW,247,4.0,8.0,69,0.00,,,-99.99,WeatherLink 5.7,2013-02-12 21:05:00,
2013-02-12 16:15:00,38.2,28.6,29.66,WSW,247,4.0,8.0,68,0.00,,,-99.99,WeatherLink 5.7,2013-02-12 21:15:00,
2013-02-12 16:20:00,38.3,28.7,29.66,West,270,3.0,7.0,68,0.00,,,-99.99,WeatherLink 5.7,2013-02-12 21:20:00,
2013-02-12 16:30:00,38.3,28.7,29.67,WNW,292,2.0,7.0,68,0.00,,,-99.99,WeatherLink 5.7,2013-02-12 21:30:00,
2013-02-12 16:35:00,38.3,29.0,29.67,West,270,2.0,6.0,69,0.00,,,-99.99,WeatherLink 5.7,2013-02-12 21:35:00,
2013-02-12 16:45:00,38.2,28.6,29.66,WSW,247,4.0,9.0,68,0.00,,,-99.99,WeatherLink 5.7,2013-02-12 21:45:00,
2013-02-12 16:50:00,37.9,28.6,29.66,West,270,2.0,5.0,69,0.00,,,-99.99,WeatherLink 5.7,2013-02-12 21:50:00,
2013-02-12 17:00:00,37.8,28.5,29.67,West,270,2.0,5.0,69,0.00,,,-99.99,WeatherLink 5.7,2013-02-12 22:00:00,
2013-02-12 17:10:00,37.8,28.5,29.67,West,270,3.0,9.0,69,0.00,,,-99.99,WeatherLink 5.7,2013-02-12 22:10:00,
2013-02-12 17:20:00,37.8,28.5,29.67,WSW,247,4.0,7.0,69,0.00,,,-99.99,WeatherLink 5.7,2013-02-12 22:20:00,
2013-02-12 17:30:00,37.6,28.3,29.67,West,270,2.0,7.0,69,0.00,,,-99.99,WeatherLink 5.7,2013-02-12 22:30:00,
2013-02-12 17:35:00,37.6,28.3,29.67,WSW,247,3.0,8.0,69,0.00,,,-99.99,WeatherLink 5.7,2013-02-12 22:35:00,
2013-02-12 17:45:00,37.5,28.2,29.67,West,270,2.0,7.0,69,0.00,,,-99.99,WeatherLink 5.7,2013-02-12 22:45:00,
2013-02-12 17:55:00,37.3,28.4,29.67,West,270,2.0,6.0,70,0.00,,,-99.99,WeatherLink 5.7,2013-02-12 22:55:00,
2013-02-12 18:00:00,37.3,28.4,29.67,West,270,2.0,6.0,70,0.00,,,-99.99,WeatherLink 5.7,2013-02-12 23:00:00,
2013-02-12 18:10:00,37.2,28.3,29.67,West,270,3.0,7.0,70,0.00,,,-99.99,WeatherLink 5.7,2013-02-12 23:10:00,
2013-02-12 18:20:00,36.9,28.4,29.68,WSW,247,1.0,6.0,71,0.00,,,-99.99,WeatherLink 5.7,2013-02-12 23:20:00,
2013-02-12 18:30:00,36.9,28.4,29.69,West,270,1.0,2.0,71,0.00,,,-99.99,WeatherLink 5.7,2013-02-12 23:30:00,
2013-02-12 18:35:00,36.8,28.3,29.69,WSW,247,1.0,6.0,71,0.00,,,-99.99,WeatherLink 5.7,2013-02-12 23:35:00,
2013-02-12 18:45:00,36.8,28.6,29.70,West,270,2.0,5.0,72,0.00,,,-99.99,WeatherLink 5.7,2013-02-12 23:45:00,
2013-02-12 18:50:00,36.6,28.1,29.70,West,270,2.0,5.0,71,0.00,,,-99.99,WeatherLink 5.7,2013-02-12 23:50:00,
2013-02-12 19:05:00,36.5,28.3,29.70,WSW,247,3.0,7.0,72,0.00,,,-99.99,WeatherLink 5.7,2013-02-13 00:05:00,
2013-02-12 19:15:00,36.5,28.3,29.72,WSW,247,2.0,7.0,72,0.00,,,-99.99,WeatherLink 5.7,2013-02-13 00:15:00,
2013-02-12 19:25:00,36.3,28.1,29.72,WSW,247,2.0,6.0,72,0.00,,,-99.99,WeatherLink 5.7,2013-02-13 00:25:00,
2013-02-12 19:30:00,36.3,28.1,29.74,West,270,2.0,6.0,72,0.00,,,-99.99,WeatherLink 5.7,2013-02-13 00:30:00,
2013-02-12 19:40:00,36.3,28.1,29.74,West,270,3.0,11.0,72,0.00,,,-99.99,WeatherLink 5.7,2013-02-13 00:40:00,
2013-02-12 19:45:00,36.3,28.1,29.76,West,270,4.0,8.0,72,0.00,,,-99.99,WeatherLink 5.7,2013-02-13 00:45:00,
2013-02-12 19:55:00,36.5,28.3,29.76,WSW,247,3.0,7.0,72,0.00,,,-99.99,WeatherLink 5.7,2013-02-13 00:55:00,
2013-02-12 20:05:00,36.5,28.3,29.77,WSW,247,2.0,5.0,72,0.00,,,-99.99,WeatherLink 5.7,2013-02-13 01:05:00,
2013-02-12 20:15:00,36.3,28.5,29.78,WSW,247,3.0,7.0,73,0.00,,,-99.99,WeatherLink 5.7,2013-02-13 01:15:00,
2013-02-12 20:20:00,36.3,28.1,29.78,WSW,247,2.0,6.0,72,0.00,,,-99.99,WeatherLink 5.7,2013-02-13 01:20:00,
2013-02-12 20:30:00,36.2,28.0,29.79,WSW,247,3.0,6.0,72,0.00,,,-99.99,WeatherLink 5.7,2013-02-13 01:30:00,
2013-02-12 20:35:00,36.2,28.0,29.79,WSW,247,3.0,6.0,72,0.00,,,-99.99,WeatherLink 5.7,2013-02-13 01:35:00,
2013-02-12 20:45:00,36.2,27.7,29.79,West,270,3.0,6.0,71,0.00,,,-99.99,WeatherLink 5.7,2013-02-13 01:45:00,
2013-02-12 20:55:00,36.2,27.7,29.79,West,270,3.0,7.0,71,0.00,,,-99.99,WeatherLink 5.7,2013-02-13 01:55:00,
2013-02-12 21:05:00,36.2,27.7,29.80,WSW,247,3.0,7.0,71,0.00,,,-99.99,WeatherLink 5.7,2013-02-13 02:05:00,
2013-02-12 21:10:00,36.2,27.7,29.80,WSW,247,4.0,9.0,71,0.00,,,-99.99,WeatherLink 5.7,2013-02-13 02:10:00,
2013-02-12 21:15:00,36.2,27.7,29.79,West,270,3.0,6.0,71,0.00,,,-99.99,WeatherLink 5.7,2013-02-13 02:15:00,
2013-02-12 21:25:00,36.0,27.5,29.79,West,270,3.0,7.0,71,0.00,,,-99.99,WeatherLink 5.7,2013-02-13 02:25:00,
2013-02-12 21:30:00,35.9,27.1,29.77,West,270,5.0,9.0,70,0.00,,,-99.99,WeatherLink 5.7,2013-02-13 02:30:00,
2013-02-12 21:40:00,35.5,27.4,29.77,West,270,2.0,6.0,72,0.00,,,-99.99,WeatherLink 5.7,2013-02-13 02:40:00,
2013-02-12 21:50:00,35.2,26.4,29.76,WSW,247,1.0,5.0,70,0.00,,,-99.99,WeatherLink 5.7,2013-02-13 02:50:00,
2013-02-12 21:55:00,35.0,26.2,29.76,NW,315,2.0,5.0,70,0.00,,,-99.99,WeatherLink 5.7,2013-02-13 02:55:00,
2013-02-12 22:05:00,34.7,26.3,29.76,West,270,1.0,5.0,71,0.00,,,-99.99,WeatherLink 5.7,2013-02-13 03:05:00,
2013-02-12 22:10:00,34.6,26.2,29.76,West,270,1.0,8.0,71,0.00,,,-99.99,WeatherLink 5.7,2013-02-13 03:10:00,
2013-02-12 22:20:00,34.3,25.5,29.76,NW,315,0.0,1.0,70,0.00,,,-99.99,WeatherLink 5.7,2013-02-13 03:20:00,
2013-02-12 22:30:00,34.1,25.7,29.76,North,-999,0.0,0.0,71,0.00,,,-99.99,WeatherLink 5.7,2013-02-13 03:30:00,
2013-02-12 22:40:00,33.5,25.4,29.76,NNW,337,0.0,2.0,72,0.00,,,-99.99,WeatherLink 5.7,2013-02-13 03:40:00,
2013-02-12 22:50:00,33.4,25.3,29.76,West,270,0.0,2.0,72,0.00,,,-99.99,WeatherLink 5.7,2013-02-13 03:50:00,
2013-02-12 23:00:00,33.1,25.4,29.74,West,270,0.0,2.0,73,0.00,,,-99.99,WeatherLink 5.7,2013-02-13 04:00:00,
2013-02-12 23:10:00,33.1,24.7,29.74,NNE,22,1.0,3.0,71,0.00,,,-99.99,WeatherLink 5.7,2013-02-13 04:10:00,
2013-02-12 23:15:00,33.1,24.7,29.74,West,270,0.0,5.0,71,0.00,,,-99.99,WeatherLink 5.7,2013-02-13 04:15:00,
2013-02-12 23:25:00,32.9,24.9,29.74,West,270,2.0,6.0,72,0.00,,,-99.99,WeatherLink 5.7,2013-02-13 04:25:00,
2013-02-12 23:35:00,32.8,24.8,29.75,WNW,292,0.0,2.0,72,0.00,,,-99.99,WeatherLink 5.7,2013-02-13 04:35:00,
2013-02-12 23:45:00,32.7,25.3,29.75,North,-999,0.0,0.0,74,0.00,,,-99.99,WeatherLink 5.7,2013-02-13 04:45:00,
2013-02-12 23:55:00,32.5,25.5,29.75,WNW,292,0.0,2.0,75,0.00,,,-99.99,WeatherLink 5.7,2013-02-13 04:55:00,